Wind_Speed
34 34 38 40 37 35 37 39 43 42 42 38 38 42 44 46 48 49 50 51 52 53 54 55 56 57 59 59 59 58 58 58 58 59 61 63 66 69 71 72 73 73 73 74
38 36 40 42 38 37 38 40 42 43 42 39 41 43 45 46 48 49 50 51 53 54 55 55 57 58 59 59 58 58 59 59 59 60 61 63 65 68 70 71 72 72 72 72
43 41 43 42 38 38 39 40 41 43 42 42 43 44 45 46 47 49 50 52 53 54 55 56 57 58 59 58 59 59 59 60 59 61 62 64 65 67 69 69 70 71 70 70
47 46 48 43 40 40 41 40 41 43 43 43 45 45 46 47 49 49 51 53 54 56 57 58 58 59 59 59 60 61 61 61 61 62 63 64 66 67 68 68 69 69 69 68
49 51 52 46 42 43 45 44 42 45 45 46 47 47 47 49 51 52 54 56 58 59 60 60 60 60 61 61 62 63 63 62 62 64 65 65 66 66 67 67 67 68 68 66
52 55 55 49 47 47 48 48 45 48 48 49 51 52 52 53 55 57 58 60 61 61 62 62 63 63 63 63 63 65 64 64 64 64 66 66 66 65 65 66 66 66 66 65
54 57 56 50 50 51 52 51 51 52 53 55 56 57 58 58 60 61 62 63 64 64 65 65 65 65 65 65 65 65 65 64 64 64 65 65 64 64 64 64 64 63 63 63
56 59 57 53 54 54 55 56 57 58 59 61 61 62 62 63 64 65 66 66 67 67 67 66 66 66 66 66 66 66 65 64 64 64 63 63 62 62 63 62 61 61 61 61
59 59 57 56 57 58 59 61 62 63 64 64 65 64 64 64 65 65 66 66 67 67 66 65 64 64 64 64 65 64 63 63 63 62 61 61 60 60 61 59 58 58 59 58
60 58 57 57 59 60 62 64 65 65 65 65 65 65 64 64 64 64 63 63 63 62 60 60 60 60 59 60 61 61 60 60 59 59 58 58 57 58 59 57 56 55 56 55
56 53 55 55 57 59 60 62 62 63 63 63 62 61 60 59 59 58 57 56 56 57 57 56 57 56 56 56 56 56 55 55 55 55 55 55 54 54 55 55 53 52 53 53
50 47 52 52 52 54 56 57 57 57 57 56 56 56 55 54 52 51 51 52 53 53 53 52 52 52 51 51 51 51 51 51 51 52 52 51 50 49 50 51 50 49 50 50
47 47 49 49 50 50 50 50 50 50 50 50 49 49 48 47 47 48 48 49 50 50 49 49 48 47 48 48 48 49 49 49 49 49 49 49 48 47 48 48 47 47 48 48
45 46 46 45 45 44 44 44 44 44 44 45 45 45 45 45 45 46 48 49 49 48 47 47 46 46 47 47 48 49 49 48 48 49 48 48 46 45 46 46 45 45 45 45
44 45 44 43 42 41 41 41 41 41 41 42 42 43 44 45 46 47 47 48 47 46 45 45 45 46 48 48 48 48 48 48 48 49 48 47 45 43 43 43 42 42 43 43
44 43 43 43 43 42 42 43 43 43 43 44 45 46 47 48 48 47 47 47 46 46 46 47 48 48 49 49 49 49 49 49 49 48 48 46 43 41 41 41 40 40 40 40
45 44 44 45 46 47 47 48 48 49 50 50 50 50 51 51 50 50 50 50 50 50 51 52 52 52 52 51 51 50 50 50 49 49 47 46 42 40 39 38 38 38 38 38
46 46 47 48 50 51 52 53 54 55 55 55 55 55 56 56 55 55 55 56 56 57 57 58 57 56 55 55 54 53 52 52 51 49 48 45 41 38 36 36 35 35 36 35
48 49 51 52 53 54 56 57 58 58 59 59 60 60 60 60 61 61 61 61 61 62 62 62 61 60 60 58 57 56 54 53 52 50 47 44 40 36 34 34 33 33 33 32
47 48 50 52 53 55 56 58 59 60 60 61 62 62 62 62 63 64 64 65 65 65 64 64 64 63 62 61 59 57 55 53 51 49 46 42 38 35 32 31 31 31 30 29
44 46 48 49 51 53 55 56 58 58 58 59 60 61 61 62 63 65 66 66 66 66 66 65 65 63 62 60 58 56 54 51 49 47 44 39 36 32 29 28 28 28 27 26
45 46 48 49 51 52 53 55 56 57 57 58 59 60 61 62 63 63 64 65 65 65 64 64 63 62 61 59 57 54 51 49 46 43 40 36 32 29 27 26 25 25 24 23
45 47 48 50 51 52 53 54 55 56 56 57 58 58 59 59 60 60 60 60 61 61 61 60 60 59 58 56 53 51 48 46 43 39 36 32 29 26 24 23 22 22 21 20
48 49 49 50 52 52 53 53 54 54 54 54 54 54 55 55 54 55 56 56 57 57 57 57 57 56 54 51 48 45 42 40 38 36 32 29 26 24 22 21 20 19 18 17
49 50 51 52 52 53 53 53 53 52 51 50 49 49 50 50 50 50 51 52 53 53 53 52 50 48 45 42 39 37 36 34 33 32 30 27 24 22 21 19 17 17 16 15
49 50 50 51 52 52 52 51 50 48 46 45 43 43 44 46 47 48 48 48 49 50 49 47 44 41 39 37 35 33 31 30 29 29 27 25 22 21 20 18 15 15 13 12
48 49 49 49 50 50 50 48 46 44 43 41 39 39 41 43 44 44 45 46 46 46 46 44 41 38 35 33 30 26 25 24 25 26 25 23 21 20 19 16 14 13 11 10
Wind_Direction
285 285 285 285 287 289 289 289 289 292 292 296 291 284 282 283 285 289 292 294 297 299 300 302 304 306 308 311 313 315 317 318 319 321 323 325 328 331 334 336 338 340 343 345
284 283 282 284 289 291 289 290 291 291 293 295 291 289 289 289 289 290 292 294 295 297 298 300 302 305 307 310 312 314 315 316 317 319 321 323 327 330 332 335 337 339 342 345
284 283 281 284 290 289 289 290 291 292 292 290 289 289 289 289 289 290 291 292 293 294 296 298 301 304 306 309 311 312 313 314 316 317 319 322 325 328 331 333 336 338 342 344
284 283 282 288 289 291 289 289 292 291 290 288 288 288 289 289 289 289 290 291 292 293 296 298 301 303 306 308 309 310 312 313 315 316 318 321 324 326 329 331 334 337 341 344
282 283 285 288 292 291 290 289 291 289 288 286 285 285 286 287 288 289 290 291 292 294 296 299 301 303 305 307 308 309 310 312 313 315 317 320 323 325 327 330 332 336 339 343
280 281 284 290 291 291 290 291 289 286 286 285 285 285 285 286 287 288 289 291 293 295 297 299 300 302 303 304 305 306 308 310 311 313 316 319 322 324 325 328 330 334 338 342
279 281 283 288 288 288 289 290 287 287 287 286 287 287 288 288 289 290 291 292 294 296 297 298 300 301 302 303 303 305 307 308 310 312 314 317 320 322 324 326 328 332 336 341
280 280 284 287 286 286 286 285 285 285 285 285 286 287 288 289 290 291 292 294 295 296 297 298 299 300 301 302 302 304 305 307 309 311 314 316 319 321 322 324 327 331 335 340
279 281 283 284 284 284 283 283 283 283 284 284 285 286 288 289 290 292 293 294 295 296 297 298 298 299 300 301 301 303 304 306 308 310 312 315 318 320 321 322 325 329 334 339
280 282 283 282 282 282 282 282 283 284 285 286 287 289 290 291 292 293 294 295 295 296 297 298 298 299 300 300 301 303 304 306 307 310 312 314 317 319 319 320 322 327 332 338
281 284 282 280 279 279 280 281 282 283 285 287 289 291 292 293 294 295 296 296 297 297 298 299 298 298 299 300 301 303 305 306 308 310 312 314 316 318 319 318 320 325 331 336
282 281 279 280 280 280 281 283 284 286 287 288 290 292 293 294 295 296 297 298 299 299 301 301 301 300 300 300 301 303 305 308 310 312 313 314 317 319 319 318 319 323 329 335
279 279 279 280 282 284 286 288 289 290 291 292 293 295 296 297 297 298 299 300 301 302 302 302 303 303 302 302 303 305 307 309 311 312 314 315 316 318 318 317 318 321 327 333
280 280 281 282 284 285 287 289 291 292 294 294 295 295 297 298 299 301 302 302 302 302 301 302 303 303 303 304 305 305 307 308 311 313 314 315 315 316 316 316 316 319 326 332
281 281 282 283 283 285 287 289 291 293 293 294 295 296 297 298 300 301 302 302 302 302 301 301 303 303 303 303 304 305 306 308 310 313 314 315 315 315 315 315 315 318 324 330
280 281 282 283 283 284 285 286 288 290 291 292 293 295 296 297 298 299 300 302 302 302 301 301 302 302 303 303 303 304 305 306 308 311 313 314 315 315 314 313 313 316 322 328
279 280 280 281 281 283 284 286 287 288 290 291 292 293 295 296 297 298 299 300 301 301 300 299 300 300 300 300 301 301 302 303 306 308 310 312 313 313 312 311 311 314 320 327
277 279 280 281 282 283 284 286 287 288 288 289 291 293 294 295 296 297 298 298 299 299 299 299 298 298 297 297 297 298 298 299 301 303 305 308 310 310 309 308 309 311 317 324
276 278 279 280 281 282 284 285 287 288 290 291 293 294 295 296 297 297 298 299 299 298 298 298 298 297 296 295 295 295 295 295 296 298 300 302 304 304 304 304 305 308 315 322
279 279 280 281 283 285 286 287 289 290 292 294 295 295 296 297 297 298 298 300 300 299 299 298 297 296 295 294 293 292 292 292 292 293 294 296 298 298 298 299 301 305 311 320
281 281 282 283 285 286 288 290 291 292 294 296 296 297 298 298 299 299 300 301 301 301 300 299 298 296 294 293 291 290 288 288 288 287 288 290 291 291 291 293 295 300 308 317
282 283 284 286 287 288 290 292 293 295 296 297 298 298 299 300 301 302 303 303 303 303 302 301 300 297 294 293 291 288 285 283 282 281 280 281 282 282 283 285 289 296 304 313
285 286 288 289 290 292 293 295 296 298 299 299 300 300 302 304 305 306 307 307 307 306 305 303 302 299 296 293 290 286 283 278 274 271 270 271 271 272 274 277 282 290 299 309
287 289 290 292 294 296 297 298 299 300 301 302 302 303 305 307 309 310 312 312 312 311 310 308 306 303 299 294 288 284 281 275 268 262 258 259 260 262 264 267 274 283 293 305
289 290 291 293 296 297 299 300 301 301 302 302 303 305 307 310 312 314 315 316 317 317 315 314 311 307 303 297 290 283 277 270 260 251 247 247 248 250 253 256 264 275 287 299
291 293 294 296 298 299 300 300 301 302 302 302 303 306 308 311 313 315 317 318 319 320 320 319 316 312 308 301 294 285 275 263 250 243 237 235 235 238 241 245 254 266 279 293
294 295 296 298 299 300 301 302 302 301 302 303 304 307 310 312 314 315 317 318 319 321 320 319 317 315 311 305 297 284 267 254 244 235 227 223 223 225 230 234 244 259 272 286
Height
5807 5805 5799 5796 5796 5794 5789 5785 5780 5777 5774 5775 5770 5764 5760 5756 5752 5748 5745 5740 5734 5729 5722 5715 5708 5701 5693 5685 5676 5668 5659 5649 5639 5628 5617 5605 5593 5580 5567 5552 5537 5521 5504 5488
5798 5796 5790 5787 5788 5785 5780 5776 5772 5768 5766 5764 5757 5753 5749 5745 5741 5737 5733 5728 5722 5716 5710 5704 5697 5690 5682 5674 5666 5657 5648 5639 5629 5618 5607 5596 5584 5572 5559 5545 5530 5515 5499 5482
5786 5785 5780 5780 5781 5775 5772 5768 5763 5758 5757 5752 5747 5743 5738 5734 5729 5725 5720 5715 5709 5703 5698 5692 5685 5678 5671 5663 5655 5646 5637 5628 5618 5608 5597 5586 5575 5564 5551 5537 5523 5508 5493 5477
5773 5772 5768 5774 5770 5766 5761 5760 5754 5747 5744 5740 5736 5732 5727 5722 5718 5713 5707 5702 5696 5691 5685 5680 5673 5667 5660 5652 5644 5635 5626 5617 5607 5597 5587 5577 5567 5556 5543 5530 5517 5502 5487 5472
5761 5756 5755 5761 5760 5753 5748 5748 5744 5735 5731 5727 5723 5720 5716 5710 5705 5699 5694 5689 5683 5678 5673 5667 5661 5654 5647 5640 5631 5622 5614 5606 5596 5587 5577 5568 5558 5547 5536 5523 5510 5497 5483 5468
5748 5743 5742 5750 5746 5740 5735 5734 5730 5722 5717 5713 5709 5706 5704 5698 5692 5686 5681 5676 5670 5665 5660 5654 5648 5641 5634 5626 5618 5610 5602 5594 5585 5576 5567 5558 5549 5539 5528 5516 5503 5491 5477 5463
5736 5730 5730 5738 5733 5726 5723 5720 5714 5709 5704 5699 5694 5691 5687 5683 5678 5672 5667 5662 5657 5651 5646 5640 5634 5627 5619 5612 5604 5596 5590 5582 5574 5566 5557 5549 5540 5530 5520 5509 5497 5485 5472 5459
5723 5717 5720 5723 5717 5713 5708 5703 5699 5693 5689 5683 5679 5676 5672 5667 5663 5658 5652 5648 5642 5636 5631 5625 5619 5611 5605 5598 5590 5583 5576 5569 5562 5555 5547 5539 5531 5522 5512 5501 5490 5478 5466 5453
5708 5707 5708 5705 5701 5697 5692 5686 5682 5677 5673 5668 5663 5660 5656 5652 5648 5643 5637 5632 5626 5620 5615 5610 5603 5596 5590 5584 5576 5570 5563 5557 5550 5544 5536 5529 5521 5513 5504 5494 5483 5472 5461 5448
5692 5692 5694 5690 5684 5680 5675 5668 5664 5660 5656 5651 5647 5644 5640 5636 5632 5627 5622 5616 5610 5604 5599 5594 5588 5582 5576 5569 5563 5557 5551 5545 5539 5532 5526 5519 5512 5504 5495 5486 5476 5466 5455 5443
5676 5678 5675 5672 5668 5663 5657 5653 5648 5644 5640 5636 5631 5627 5624 5620 5616 5611 5606 5601 5595 5589 5584 5579 5573 5568 5562 5556 5550 5545 5539 5534 5528 5521 5515 5508 5502 5495 5487 5478 5470 5460 5450 5439
5660 5662 5654 5651 5650 5646 5641 5637 5633 5629 5626 5622 5617 5613 5609 5605 5601 5597 5592 5587 5581 5576 5570 5566 5560 5555 5550 5544 5538 5533 5528 5523 5517 5511 5505 5498 5492 5486 5478 5471 5463 5454 5444 5434
5645 5643 5639 5636 5634 5630 5626 5622 5619 5615 5611 5608 5604 5600 5595 5592 5588 5584 5579 5574 5568 5563 5559 5554 5549 5544 5538 5533 5528 5523 5518 5513 5507 5501 5495 5489 5483 5477 5470 5463 5456 5448 5439 5430
5633 5629 5626 5624 5621 5618 5614 5610 5607 5603 5599 5595 5591 5588 5584 5580 5576 5572 5567 5562 5557 5552 5547 5543 5538 5533 5527 5523 5518 5512 5507 5502 5497 5492 5486 5480 5475 5469 5462 5456 5449 5442 5434 5425
5620 5617 5614 5611 5609 5605 5602 5599 5595 5592 5588 5584 5580 5576 5572 5569 5565 5560 5555 5550 5546 5542 5537 5532 5528 5523 5518 5513 5507 5502 5497 5493 5487 5482 5476 5471 5466 5460 5454 5448 5442 5436 5429 5421
5608 5605 5602 5599 5596 5593 5590 5587 5584 5580 5577 5573 5569 5566 5562 5558 5553 5549 5544 5539 5535 5531 5526 5521 5517 5512 5507 5502 5497 5492 5487 5482 5477 5472 5467 5462 5457 5452 5446 5441 5436 5430 5424 5416
5596 5593 5590 5587 5584 5581 5578 5575 5571 5568 5565 5561 5557 5554 5549 5545 5541 5537 5532 5527 5522 5518 5513 5508 5504 5499 5495 5490 5485 5480 5475 5471 5466 5462 5457 5453 5448 5443 5439 5434 5429 5424 5418 5411
5582 5579 5576 5574 5570 5567 5564 5561 5558 5555 5551 5548 5544 5540 5536 5531 5527 5523 5518 5514 5509 5504 5498 5493 5489 5484 5480 5475 5471 5467 5463 5458 5454 5451 5446 5443 5439 5435 5431 5426 5422 5418 5412 5406
5568 5566 5562 5559 5556 5553 5550 5547 5544 5540 5537 5533 5530 5525 5521 5516 5511 5507 5502 5497 5492 5487 5482 5476 5472 5467 5463 5458 5455 5451 5447 5444 5440 5438 5434 5432 5429 5425 5422 5418 5415 5411 5407 5401
5554 5551 5548 5545 5541 5538 5535 5532 5528 5525 5522 5517 5514 5510 5505 5501 5495 5490 5486 5480 5474 5468 5463 5458 5453 5447 5443 5439 5436 5433 5430 5427 5425 5423 5421 5420 5418 5415 5413 5410 5408 5405 5401 5396
5541 5537 5534 5531 5529 5526 5522 5518 5514 5512 5508 5503 5498 5494 5490 5485 5479 5473 5468 5463 5456 5449 5443 5437 5431 5426 5421 5417 5415 5413 5410 5409 5408 5407 5407 5406 5406 5405 5403 5402 5400 5398 5395 5391
5527 5524 5521 5518 5516 5513 5509 5504 5501 5497 5494 5489 5484 5478 5474 5469 5463 5457 5450 5442 5437 5429 5423 5416 5409 5404 5399 5396 5393 5392 5390 5390 5390 5390 5392 5393 5394 5394 5394 5393 5392 5391 5389 5385
5514 5510 5508 5504 5501 5499 5496 5491 5486 5483 5478 5473 5468 5462 5457 5452 5446 5440 5434 5426 5417 5410 5402 5395 5388 5382 5377 5374 5372 5371 5370 5371 5372 5374 5376 5379 5382 5383 5384 5384 5384 5384 5383 5380
5499 5496 5493 5490 5487 5484 5481 5477 5472 5468 5463 5458 5452 5446 5441 5437 5431 5423 5415 5409 5400 5392 5384 5376 5369 5363 5357 5354 5352 5351 5351 5353 5355 5358 5362 5366 5370 5373 5374 5376 5377 5377 5376 5374
5484 5482 5479 5476 5473 5469 5466 5463 5459 5454 5449 5444 5439 5433 5427 5421 5416 5410 5403 5395 5386 5377 5369 5360 5352 5345 5340 5336 5335 5335 5335 5337 5340 5344 5349 5354 5359 5363 5365 5368 5369 5371 5370 5369
5470 5467 5464 5461 5458 5454 5451 5448 5445 5440 5436 5432 5428 5422 5416 5410 5404 5398 5391 5383 5375 5366 5357 5349 5341 5334 5329 5325 5323 5322 5322 5324 5327 5332 5338 5344 5350 5354 5357 5360 5363 5364 5364 5364
5457 5454 5451 5448 5444 5440 5437 5434 5431 5427 5423 5419 5416 5411 5405 5399 5393 5387 5380 5373 5365 5356 5348 5340 5332 5325 5320 5315 5313 5312 5312 5314 5318 5323 5329 5336 5341 5346 5350 5354 5357 5358 5359 5359